Weather History for K1A5 - April, 2013

Change the Weather History Date:

Monday, April 29, 2013

  Actual Average (KAVL) Record (KAVL)
Temperature  
Mean Temperature 60 °F 59 °F  
Max Temperature 74 °F 71 °F 89 °F (1970)
Min Temperature 47 °F 47 °F 28 °F (1967)
Degree Days  
Heating Degree Days 4 7  
Month to date heating degree days 295  
Since 1 July heating degree days 4067  
Cooling Degree Days 0 0  
Month to date cooling degree days 0  
Year to date cooling degree days 1  
Growing Degree Days 10 (Base 50)    
Moisture  
Dew Point 49 °F    
Average Humidity 74    
Maximum Humidity 100    
Minimum Humidity 28    
Precipitation  
Precipitation 0.02 in 0.11 in 1.51 in (1963)
Month to date precipitation 3.22  
Year to date precipitation 14.48  
Snow  
Snow 0.00 in 0.00 in 0.10 in (1874)
Month to date snowfall 0.7  
Since 1 July snowfall 9.9  
Snow Depth -    
Sea Level Pressure  
Sea Level Pressure 30.01 in    
Wind  
Wind Speed 1 mph (NE)    
Max Wind Speed 8 mph    
Max Gust Speed -    
Visibility 9 miles    
Events Fog , Rain    
T = Trace of Precipitation, MM = Missing Value Source: NWS Daily Summary

Daily Weather History Graph

Daily Weather History Graph

Search for Another Location

Airport or City:

Trip Planner

Search our weather history database for the weather conditions in past years. The results will help you decide how hot, cold, wet, or windy it might be!

Date:

Astronomy

Apr. 29, 2013 Rise Set
Actual Time 6:44 AM EDT 8:18 PM EDT
Civil Twilight 6:17 AM EDT 8:45 PM EDT
Nautical Twilight 5:44 AM EDT 9:17 PM EDT
Astronomical Twilight 5:10 AM EDT 9:52 PM EDT
Moon No Moon Rise 10:07 AM EDT (4/29)
Length of Visible Light 14h 27m
Length of Day
13h 33m
Waning Gibbous, 80% of the Moon is Illuminated
Apr 29
Waning Gibbous
May 2
Last Quarter
May 9
New
May 18
First Quarter
May 25
Full

Hourly Weather History & Observations

Time (EDT) Temp. Dew Point Humidity Pressure Visibility Wind Dir Wind Speed Gust Speed Precip Events Conditions
12:15 AM 50.9 °F 50.4 °F 98% 30.06 in 10.0 mi Calm Calm - N/A Rain Rain
12:35 AM 50.9 °F 50.2 °F 97% 30.06 in 10.0 mi Calm Calm - N/A Rain Rain
12:55 AM 50.9 °F 50.0 °F 97% 30.06 in 10.0 mi Calm Calm - 0.01 in   Drizzle
1:15 AM 50.9 °F 50.2 °F 97% 30.06 in 10.0 mi Calm Calm - N/A   Drizzle
1:35 AM 50.9 °F 50.2 °F 97% 30.06 in 10.0 mi Calm Calm - N/A   Light Drizzle
2:15 AM 51.3 °F 50.5 °F 97% 30.04 in 10.0 mi Calm Calm - N/A   Overcast
2:35 AM 51.3 °F 51.1 °F 99% 30.04 in 10.0 mi Calm Calm - N/A   Drizzle
2:55 AM 50.9 °F 50.9 °F 100% 30.04 in 10.0 mi ESE 3.5 mph - 0.01 in   Overcast
3:15 AM 50.4 °F 50.2 °F 99% 30.04 in 10.0 mi Calm Calm - N/A   Overcast
3:35 AM 50.2 °F 50.0 °F 99% 30.03 in 10.0 mi Calm Calm - N/A   Mostly Cloudy
3:55 AM 50.9 °F 50.4 °F 98% 30.03 in 10.0 mi Calm Calm - N/A   Mostly Cloudy
4:15 AM 50.4 °F 50.2 °F 99% 30.02 in 10.0 mi Calm Calm - N/A   Mostly Cloudy
4:35 AM 50.0 °F 49.6 °F 99% 30.02 in 10.0 mi Calm Calm - N/A   Scattered Clouds
4:55 AM 49.1 °F 48.9 °F 99% 30.02 in 10.0 mi Calm Calm - N/A   Mostly Cloudy
5:15 AM 49.1 °F 48.7 °F 99% 30.02 in 10.0 mi Calm Calm - N/A   Mostly Cloudy
5:35 AM 49.1 °F 48.6 °F 98% 30.03 in 10.0 mi Calm Calm - N/A   Overcast
5:55 AM 48.6 °F 47.8 °F 97% 30.03 in 10.0 mi Calm Calm - N/A   Overcast
6:15 AM 48.4 °F 47.7 °F 97% 30.03 in 5.0 mi Calm Calm - N/A   Mostly Cloudy
6:35 AM 47.7 °F 47.1 °F 98% 30.03 in 1.2 mi Calm Calm - N/A   Overcast
6:55 AM 47.7 °F 46.8 °F 97% 30.04 in 1.0 mi Calm Calm - N/A   Overcast
7:15 AM 47.8 °F 46.9 °F 97% 30.04 in 0.8 mi Calm Calm - N/A   Overcast
7:35 AM 48.7 °F 47.8 °F 97% 30.06 in 0.5 mi Calm Calm - N/A Fog Fog
7:55 AM 49.5 °F 48.6 °F 97% 30.05 in 7.0 mi Calm Calm - N/A   Overcast
8:15 AM 50.2 °F 49.3 °F 97% 30.06 in 10.0 mi West 3.5 mph - N/A   Overcast
8:35 AM 51.1 °F 50.0 °F 96% 30.06 in 10.0 mi Calm Calm - N/A   Mostly Cloudy
8:55 AM 53.1 °F 51.8 °F 95% 30.06 in 10.0 mi Calm Calm - N/A   Scattered Clouds
9:15 AM 54.3 °F 53.6 °F 97% 30.06 in 10.0 mi Calm Calm - N/A   Scattered Clouds
9:35 AM 54.1 °F 52.9 °F 95% 30.06 in 10.0 mi Calm Calm - N/A   Overcast
9:55 AM 55.4 °F 53.2 °F 92% 30.06 in 10.0 mi Calm Calm - N/A   Overcast
10:15 AM 57.2 °F 53.1 °F 86% 30.06 in 10.0 mi Calm Calm - N/A   Mostly Cloudy
10:35 AM 58.3 °F 52.0 °F 80% 30.06 in 10.0 mi Calm Calm - N/A   Scattered Clouds
10:55 AM 59.4 °F 51.4 °F 75% 30.05 in 10.0 mi Calm Calm - N/A   Scattered Clouds
11:15 AM 61.3 °F 50.7 °F 68% 30.04 in 10.0 mi Calm Calm - N/A   Scattered Clouds
11:35 AM 62.1 °F 49.5 °F 63% 30.04 in 10.0 mi Calm Calm - N/A   Clear
11:55 AM 63.7 °F 49.3 °F 59% 30.04 in 10.0 mi Calm Calm - N/A   Clear
12:15 PM 64.8 °F 49.8 °F 58% 30.04 in 10.0 mi NNE 5.8 mph - N/A   Scattered Clouds
12:35 PM 65.3 °F 48.4 °F 54% 30.03 in 10.0 mi Calm Calm - N/A   Scattered Clouds
12:55 PM 66.2 °F 49.3 °F 54% 30.02 in 10.0 mi Calm Calm - N/A   Clear
1:15 PM 66.6 °F 48.6 °F 52% 30.01 in 10.0 mi Calm Calm - N/A   Clear
1:35 PM 68.4 °F 49.8 °F 51% 30.01 in 10.0 mi NNE 3.5 mph - N/A   Clear
1:55 PM 67.5 °F 47.8 °F 49% 30.01 in 10.0 mi Calm Calm - N/A   Clear
2:15 PM 68.7 °F 47.3 °F 46% 30.00 in 10.0 mi Calm Calm - N/A   Scattered Clouds
2:35 PM 69.3 °F 46.6 °F 44% 29.99 in 10.0 mi Calm Calm - N/A   Scattered Clouds
2:55 PM 70.7 °F 46.9 °F 43% 29.98 in 10.0 mi North 3.5 mph - N/A   Clear
3:15 PM 71.6 °F 45.5 °F 39% 29.97 in 10.0 mi East 4.6 mph - N/A   Clear
3:35 PM 72.0 °F 43.2 °F 35% 29.96 in 10.0 mi East 3.5 mph - N/A   Clear
3:55 PM 72.7 °F 41.9 °F 33% 29.95 in 7.0 mi North 3.5 mph - N/A   Clear
4:15 PM 73.4 °F 41.2 °F 31% 29.94 in 10.0 mi Calm Calm - N/A   Clear
4:35 PM 74.3 °F 39.4 °F 28% 29.93 in 10.0 mi SSE 8.1 mph - N/A   Clear
4:55 PM 72.1 °F 39.0 °F 30% 29.93 in 10.0 mi Calm Calm - N/A   Scattered Clouds
5:15 PM 73.2 °F 41.5 °F 32% 29.93 in 10.0 mi Calm Calm - N/A   Mostly Cloudy
5:35 PM 73.6 °F 38.7 °F 28% 29.93 in 10.0 mi South 3.5 mph - N/A   Mostly Cloudy
5:55 PM 70.5 °F 45.1 °F 40% 29.93 in 10.0 mi SSE 4.6 mph - N/A   Scattered Clouds
6:15 PM 69.8 °F 46.2 °F 43% 29.93 in 10.0 mi Calm Calm - N/A   Scattered Clouds
6:35 PM 68.9 °F 46.8 °F 45% 29.94 in 10.0 mi Calm Calm - N/A   Clear
6:55 PM 66.4 °F 50.7 °F 57% 29.94 in 10.0 mi Calm Calm - N/A   Scattered Clouds
7:15 PM 68.2 °F 47.8 °F 48% 29.94 in 10.0 mi North 3.5 mph - N/A   Scattered Clouds
7:35 PM 68.0 °F 49.1 °F 51% 29.94 in 10.0 mi NNW 6.9 mph - N/A   Scattered Clouds
7:55 PM 66.6 °F 48.9 °F 53% 29.95 in 10.0 mi Calm Calm - N/A   Scattered Clouds
8:15 PM 63.3 °F 51.4 °F 65% 29.97 in 10.0 mi Calm Calm - N/A   Scattered Clouds
8:35 PM 60.8 °F 51.6 °F 72% 29.98 in 10.0 mi Calm Calm - N/A   Scattered Clouds
8:55 PM 58.6 °F 52.2 °F 79% 29.99 in 10.0 mi Calm Calm - N/A   Mostly Cloudy
9:15 PM 59.5 °F 52.7 °F 78% 30.00 in 10.0 mi Calm Calm - N/A   Overcast
9:35 PM 59.4 °F 52.0 °F 77% 30.00 in 10.0 mi Calm Calm - N/A   Mostly Cloudy
9:55 PM 58.3 °F 52.2 °F 80% 30.01 in 10.0 mi Calm Calm - N/A   Mostly Cloudy
10:15 PM 57.7 °F 52.7 °F 83% 30.02 in 10.0 mi Calm Calm - N/A   Overcast
10:35 PM 56.7 °F 52.0 °F 84% 30.03 in 10.0 mi Calm Calm - N/A   Overcast
10:55 PM 55.4 °F 51.8 °F 88% 30.03 in 10.0 mi Calm Calm - N/A   Scattered Clouds
11:35 PM 52.0 °F 50.9 °F 96% 30.03 in 7.0 mi Calm Calm - N/A   Clear
11:55 PM 52.3 °F 51.6 °F 97% 30.03 in 10.0 mi Calm Calm - N/A   Mostly Cloudy